Tullahoma, TN

12:01 PM CDT on May 27, 2017 (GMT -0500)
Tullahoma Regional-Northern

Weather History for KTHA - October, 2013

Change the Weather History Date:

Thursday, October 17, 2013

  Actual Average Record
Temperature  
Mean Temperature 52 °F -  
Max Temperature 60 °F 71 °F 82 °F (2016)
Min Temperature 44 °F 46 °F 33 °F (2015)
Degree Days  
Heating Degree Days 13    
Growing Degree Days 2 (Base 50)    
Moisture  
Dew Point 55 °F    
Average Humidity 96    
Maximum Humidity 100    
Minimum Humidity 82    
Precipitation  
Precipitation 0.00 in - - ()
Sea Level Pressure  
Sea Level Pressure 29.98 in    
Wind  
Wind Speed 3 mph (NW)    
Max Wind Speed 13 mph    
Max Gust Speed -    
Visibility 4 miles    
Events      
Averages and records for this station are not official NWS values.
T = Trace of Precipitation, MM = Missing Value Source: NWS Daily Summary

Daily Weather History Graph

Daily Weather History Graph

Search for Another Location

Airport or City:

Trip Planner

Search our weather history database for the weather conditions in past years. The results will help you decide how hot, cold, wet, or windy it might be!

Date:

Astronomy

Oct. 17, 2013 Rise Set
Actual Time 6:53 AM CDT 6:06 PM CDT
Civil Twilight 6:27 AM CDT 6:32 PM CDT
Nautical Twilight 5:57 AM CDT 7:02 PM CDT
Astronomical Twilight 5:28 AM CDT 7:31 PM CDT
Moon 5:19 PM CDT (10/17) 5:27 AM CDT (10/17)
Length of Visible Light 12h 05m
Length of Day
11h 13m
Waxing Gibbous, 98% of the Moon is Illuminated
Oct 17
Waxing Gibbous
Oct 18
Full
Oct 26
Last Quarter
Nov 3
New
Nov 9
First Quarter

Hourly Weather History & Observations

Time (CDT) Temp. Dew Point Humidity Pressure Visibility Wind Dir Wind Speed Gust Speed Precip Events Conditions
12:15 AM 60.8 °F 60.8 °F 100% 29.95 in 1.0 mi WNW 3.5 mph - N/A   Overcast
12:35 AM 60.8 °F 60.8 °F 100% 29.95 in 0.5 mi NW 4.6 mph - N/A   Overcast
12:55 AM 60.8 °F 60.8 °F 100% 29.95 in 0.5 mi WNW 3.5 mph - N/A   Overcast
1:15 AM 60.8 °F 60.8 °F 100% 29.95 in 1.2 mi Calm Calm - N/A   Overcast
1:35 AM 60.8 °F 60.8 °F 100% 29.94 in 2.0 mi West 4.6 mph - N/A   Overcast
1:55 AM 60.8 °F 60.8 °F 100% 29.94 in 0.8 mi Calm Calm - N/A   Overcast
2:15 AM 60.8 °F 60.8 °F 100% 29.93 in 0.2 mi Calm Calm - N/A   Overcast
2:35 AM 60.8 °F 60.8 °F 100% 29.93 in 0.2 mi Calm Calm - N/A   Overcast
2:55 AM 60.8 °F 60.8 °F 100% 29.92 in 0.2 mi Calm Calm - N/A   Overcast
3:15 AM 60.8 °F 60.8 °F 100% 29.92 in 0.2 mi Calm Calm - N/A   Overcast
3:35 AM 60.8 °F 60.8 °F 100% 29.92 in 0.2 mi Calm Calm - N/A   Overcast
3:55 AM 60.8 °F 60.8 °F 100% 29.92 in 0.2 mi Calm Calm - N/A   Overcast
4:15 AM 60.8 °F 60.8 °F 100% 29.92 in 0.2 mi Calm Calm - N/A   Overcast
4:35 AM 60.8 °F 60.8 °F 100% 29.92 in 0.2 mi Calm Calm - N/A   Overcast
4:55 AM 60.8 °F 60.8 °F 100% 29.92 in 4.0 mi Calm Calm - N/A   Overcast
5:15 AM 60.8 °F 60.8 °F 100% 29.92 in 1.5 mi WNW 3.5 mph - N/A   Overcast
5:35 AM 60.8 °F 60.8 °F 100% 29.92 in 0.5 mi Calm Calm - N/A   Overcast
5:55 AM 60.8 °F 60.8 °F 100% 29.92 in 1.5 mi Calm Calm - N/A   Overcast
6:15 AM 60.8 °F 60.8 °F 100% 29.91 in 1.5 mi Calm Calm - N/A   Overcast
6:35 AM 60.8 °F 60.8 °F 100% 29.92 in 5.0 mi NNW 3.5 mph - N/A   Overcast
6:55 AM 60.8 °F 60.8 °F 100% 29.92 in 10.0 mi WNW 3.5 mph - N/A   Overcast
7:15 AM 60.8 °F 60.8 °F 100% 29.92 in 2.5 mi NW 5.8 mph - N/A   Overcast
7:35 AM 60.8 °F 60.8 °F 100% 29.93 in 2.5 mi Calm Calm - N/A   Overcast
7:55 AM 60.8 °F 60.8 °F 100% 29.94 in 1.8 mi Calm Calm - N/A   Overcast
8:15 AM 60.8 °F 60.8 °F 100% 29.94 in 1.5 mi WNW 3.5 mph - N/A   Overcast
8:35 AM 60.8 °F 60.8 °F 100% 29.95 in 1.0 mi WNW 5.8 mph - N/A   Overcast
8:55 AM 60.8 °F 60.8 °F 100% 29.96 in 2.5 mi NW 8.1 mph - N/A   Overcast
9:15 AM 59.0 °F 59.0 °F 100% 29.97 in 5.0 mi NNW 8.1 mph - N/A   Overcast
9:35 AM 57.2 °F 57.2 °F 100% 29.98 in 3.0 mi NNW 11.5 mph - N/A   Overcast
9:55 AM 57.2 °F 57.2 °F 100% 29.99 in 1.2 mi NNW 9.2 mph - N/A   Overcast
10:15 AM 55.4 °F 55.4 °F 100% 29.99 in - NNW 12.7 mph - N/A   Overcast
10:35 AM 55.4 °F 55.4 °F 100% 29.99 in - NNW 10.4 mph - N/A   Overcast
10:55 AM 55.4 °F 53.6 °F 94% 30.00 in 5.0 mi NNW 10.4 mph - N/A   Overcast
11:15 AM 53.6 °F 53.6 °F 100% 30.00 in 10.0 mi NNW 11.5 mph - N/A   Overcast
11:35 AM 53.6 °F 53.6 °F 100% 30.00 in 5.0 mi NW 9.2 mph - N/A   Overcast
11:55 AM 53.6 °F 53.6 °F 100% 30.00 in 9.0 mi North 6.9 mph - N/A   Overcast
12:15 PM 53.6 °F 53.6 °F 100% 30.00 in 4.0 mi North 6.9 mph - N/A   Overcast
12:35 PM 53.6 °F 53.6 °F 100% 30.00 in 6.0 mi North 8.1 mph - N/A   Overcast
12:55 PM 53.6 °F 53.6 °F 100% 29.99 in 10.0 mi North 5.8 mph - N/A   Overcast
1:15 PM 53.6 °F 51.8 °F 94% 29.99 in 10.0 mi NNW 8.1 mph - N/A   Overcast
1:35 PM 55.4 °F 53.6 °F 94% 29.99 in 10.0 mi NNW 5.8 mph - N/A   Overcast
1:55 PM 55.4 °F 53.6 °F 94% 29.98 in 10.0 mi NNW 5.8 mph - N/A   Overcast
2:15 PM 55.4 °F 53.6 °F 94% 29.98 in 10.0 mi NNW 4.6 mph - N/A   Overcast
2:35 PM 55.4 °F 53.6 °F 94% 29.98 in 10.0 mi NW 3.5 mph - N/A   Overcast
2:55 PM 55.4 °F 53.6 °F 94% 29.98 in 10.0 mi NNW 5.8 mph - N/A   Overcast
3:15 PM 55.4 °F 53.6 °F 94% 29.99 in 10.0 mi NNW 5.8 mph - N/A   Overcast
3:35 PM 57.2 °F 53.6 °F 88% 29.99 in 10.0 mi NNW 4.6 mph - N/A   Mostly Cloudy
3:55 PM 57.2 °F 53.6 °F 88% 29.99 in 10.0 mi NNW 5.8 mph - N/A   Mostly Cloudy
4:15 PM 57.2 °F 51.8 °F 82% 29.99 in 10.0 mi WNW 4.6 mph - N/A   Mostly Cloudy
4:35 PM 57.2 °F 51.8 °F 82% 29.99 in 10.0 mi WNW 4.6 mph - N/A   Partly Cloudy
4:55 PM 57.2 °F 51.8 °F 82% 29.99 in 10.0 mi Calm Calm - N/A   Mostly Cloudy
5:15 PM 57.2 °F 51.8 °F 82% 29.99 in 10.0 mi Calm Calm - N/A   Overcast
5:35 PM 57.2 °F 51.8 °F 82% 29.99 in 10.0 mi Calm Calm - N/A   Overcast
5:55 PM 55.4 °F 51.8 °F 88% 29.99 in 10.0 mi Calm Calm - N/A   Scattered Clouds
6:15 PM 55.4 °F 51.8 °F 88% 30.00 in 10.0 mi Calm Calm - N/A   Clear
6:35 PM 51.8 °F 50.0 °F 94% 30.00 in 10.0 mi Calm Calm - N/A   Clear
6:55 PM 51.8 °F 48.2 °F 88% 30.01 in 8.0 mi Calm Calm - N/A   Clear
7:15 PM 51.8 °F 48.2 °F 88% 30.02 in 0.8 mi Calm Calm - N/A   Mostly Cloudy
7:35 PM 51.8 °F 48.2 °F 88% 30.02 in 1.0 mi Calm Calm - N/A   Overcast
7:55 PM 51.8 °F 50.0 °F 94% 30.02 in 8.0 mi Calm Calm - N/A   Overcast
8:15 PM 51.8 °F 51.8 °F 100% 30.02 in 10.0 mi Calm Calm - N/A   Overcast
8:35 PM 51.8 °F 50.0 °F 94% 30.02 in 10.0 mi Calm Calm - N/A   Mostly Cloudy
8:55 PM 50.0 °F 48.2 °F 94% 30.03 in 4.0 mi Calm Calm - N/A   Scattered Clouds
9:15 PM 50.0 °F 48.2 °F 94% 30.03 in 1.0 mi Calm Calm - N/A   Mostly Cloudy
9:35 PM 46.4 °F 46.4 °F 100% 30.03 in 0.2 mi Calm Calm - N/A   Mostly Cloudy
9:55 PM 48.2 °F 46.4 °F 93% 30.03 in 0.2 mi Calm Calm - N/A   Overcast
10:15 PM 46.4 °F 46.4 °F 100% 30.03 in 0.2 mi Calm Calm - N/A   Overcast
10:35 PM 46.4 °F 44.6 °F 93% 30.03 in 0.2 mi Calm Calm - N/A   Overcast
10:55 PM 46.4 °F 44.6 °F 93% 30.03 in 0.2 mi Calm Calm - N/A   Overcast
11:15 PM 44.6 °F 44.6 °F 100% 30.02 in 0.5 mi Calm Calm - N/A   Mostly Cloudy
11:35 PM 44.6 °F 44.6 °F 100% 30.02 in 0.5 mi Calm Calm - N/A   Mostly Cloudy
11:55 PM 44.6 °F 44.6 °F 100% 30.02 in 0.8 mi Calm Calm - N/A   Mostly Cloudy